Regional Weather Roundup
Issued by NWS

Home | Current Version | Previous Version | Text Only | Print | Product List | Glossary On
Versions: 1 2 3 4 5 6 7 8 9 10 11 12 13 14 15 16 17 18 19 20 21 22 23 24 25 26 27 28 29 30 31 32 33 34 35 36 37 38 39 40 41 42 43 44 45 46 47 48 49 50
000
ASUS43 KMKX 240900
RWRWI

WISCONSIN REGIONAL WEATHER ROUNDUP
NATIONAL WEATHER SERVICE MILWAUKEE/SULLIVAN WI
400 AM CDT SUN JUL 24 2016

NOTE: "FAIR" INDICATES FEW OR NO CLOUDS BELOW 12,000 FEET WITH NO
SIGNIFICANT WEATHER AND/OR OBSTRUCTIONS TO VISIBILITY.

WIZ001-002-006>008-014>016-023>028-241000-
NORTHWEST WISCONSIN

CITY           SKY/WX    TMP DP  RH WIND       PRES   REMARKS
SUPERIOR ARPT  CLOUDY    62  62 100 CALM      29.72F FOG
ASHLAND        LGT RAIN  70  67  90 SW8       29.80R
HAYWARD        TSTM      69  66  90 SE9       29.81F FOG
SIREN          LGT RAIN  66  64  94 SE9G16    29.77F
CUMBERLAND     RAIN      66  64  94 NW14G24   29.84R
RICE LAKE      CLOUDY    69  67  93 CALM      29.81F FOG
CHETEK         CLOUDY    69  69 100 MISG      29.80S FOG
LADYSMITH      CLOUDY    69  68  95 SE3       29.83F
EAU CLAIRE     CLOUDY    71  70  96 NE3       29.78S
MENOMONIE      CLOUDY    70  70  99 CALM      29.79S
NEW RICHMOND   CLOUDY    72  71  97 SE6       29.74F
OSCEOLA        CLOUDY    73  73 100 N7        29.79F
$$

WIZ003>005-009-010-017-018-241000-
NORTH CENTRAL WISCONSIN

CITY           SKY/WX    TMP DP  RH WIND       PRES   REMARKS
MANITOWISH WTR CLOUDY    68  68 100 CALM      29.84F
ARBOR VITAE    CLOUDY    72  70  95 SW5       29.84F
WOODRUFF       CLOUDY    72  70  95 SW5       29.84F
RHINELANDER    CLOUDY    70  68  93 S6        29.86S
EAGLE RIVER    CLOUDY    68  68 100 S3        29.84S
LAND O LAKES   CLOUDY    69  68  97 CALM      29.85S
PHILLIPS       CLOUDY    68  67  99 S3        29.83F
TOMAHAWK       CLOUDY    67  66  96 CALM      29.85S
MEDFORD        CLOUDY    68  68 100 SE3       29.84S
MERRILL        CLOUDY    69  69 100 CALM      29.84F
$$

WIZ029-030-035-036-043>047-241000-
CENTRAL WISCONSIN

CITY           SKY/WX    TMP DP  RH WIND       PRES   REMARKS
WAUSAU         CLOUDY    70  69  97 S9        29.83R
MOSINEE        CLOUDY    68  68 100 S5        29.86S
MARSHFIELD     CLOUDY    71  68  90 S5        29.83S
STEVENS POINT  CLOUDY    69  69  99 SE3       29.84F
WAUPACA        LGT RAIN  73  73  99 SE5       29.84F
WAUTOMA        CLOUDY    71  70  96 SE5       29.85F
WISC RAPIDS    CLOUDY    71  68  90 CALM      29.85S
CAMP DOUGLAS   CLOUDY    73  72  95 VRB5      29.82S
$$

WIZ011>013-019>022-031-037>040-048>050-241000-
NORTHEAST WISCONSIN

CITY           SKY/WX    TMP DP  RH WIND       PRES   REMARKS
ANTIGO         CLOUDY    68  68 100 CALM      29.86S
SHAWANO        CLOUDY    73  70  91 SW3       29.84S
OCONTO         CLOUDY   N/A N/A N/A SW6       29.82F
STURGEON BAY   CLOUDY    69  67  93 S5        29.85F
GREEN BAY      CLOUDY    72  72 100 S10       29.84F
MANITOWOC      LGT RAIN  70  66  88 S16       29.88R
APPLETON       TSTM      70  70 100 S8        29.84S
CLINTONVILLE   CLOUDY    70  70 100 S7        29.84S
OSHKOSH        CLOUDY    72  69  90 N7        29.87R
$$

WIZ032>034-041-042-053>061-241000-
SOUTHWEST WISCONSIN

CITY           SKY/WX    TMP DP  RH WIND       PRES   REMARKS
LA CROSSE      CLOUDY    76  72  87 SE6       29.79S
SPARTA         CLOUDY    73  71  96 CALM      29.82F
VIROQUA        CLOUDY    73  73 100 S3        29.84S
BOSCOBEL       CLOUDY    77  74  90 CALM      29.83S
PRAIRIE DU CHI PTCLDY    78  75  91 SE3       29.81F
PLATTEVILLE    CLEAR     73  73 100 S9        29.87S
$$

WIZ056-057-062-063-064-067-068-241000-
SOUTH CENTRAL WISCONSIN

CITY           SKY/WX    TMP DP  RH WIND       PRES   REMARKS
REEDSBURG      CLOUDY    72  71  99 S5        29.84F
BARABOO/DELLS  CLOUDY    72  69  90 SW9       29.85F
LONE ROCK      CLOUDY    74  70  87 S3        29.85S
MINERAL POINT  CLEAR     72  70  94 S6        29.87F
MADISON        CLEAR     72  69  90 S8        29.85F
MIDDLETON      PTCLDY    73  71  94 S6        29.87S
WATERTOWN      PTCLDY    70  70 100 S6        29.86F
MONROE         PTCLDY    70  70 100 S10       29.88F
JANESVILLE     PTCLDY    72  70  94 S8        29.88F
$$

WIZ051-052-058>065-066-070>072-241000-
SOUTHEAST WISCONSIN

CITY           SKY/WX    TMP DP  RH WIND       PRES   REMARKS
MILWAUKEE      CLOUDY    73  69  87 S12       29.86F
WAUKESHA       PTCLDY    68  66  94 S8        29.88F
MILWAUKEE/TIMM CLOUDY    70  64  83 S8        29.87F
RACINE         PTCLDY    73  68  84 S8        29.89F
BURLINGTON     PTCLDY    70  69  96 S6        29.88F
KENOSHA        PTCLDY    72  69  90 S7        29.89F
FOND DU LAC    CLOUDY    73  69  87 NW5       29.86R
SHEBOYGAN      TSTM      71  68  90 N12       29.89R
WEST BEND      CLOUDY    70  68  94 NW7       29.88S
JUNEAU         CLOUDY    70  68  95 S8        29.88F
$$

LSZ147-162-241000-
LAKE SUPERIOR

STATION/POSITION TIME  TEMP    WIND        PRES    WAVE
                       AIR SEA DIR/SP/G            HT/PER
                 (UTC) (F)     (DEG/KT/KT) (MB)    (FT/S)
W MID LAKE BUOY  0750   62 57  170/  4/  4 1007.7F   1/ 4
DEVILS ISLAND    0800   65      90/  1/  2 1008.0R
PORT WING        0820   63     130/ 22     1006.8F
SAXON HARBOR     0800   72     180/  5/  9 1007.8F
$$

LMZ867-665-643>646-241000-
LAKE MICHIGAN

STATION/POSITION TIME  TEMP    WIND        PRES    WAVE
                       AIR SEA DIR/SP/G            HT/PER
                 (UTC) (F)     (DEG/KT/KT) (MB)    (FT/S)
CHAMBERS ISLAND  0800   72     130/  5/  9 1010.5F
S GREEN BAY BUOY 0800   74 75  200/ 14/ 17   N/A
N MID LAKE BUOY  0750   71 70  250/  4/  4 1011.1R   0
NORTHPORT PIER   0800   72     150/  8/ 13 1010.8F
KEWAUNEE LAKESHO 0800   60      CALM  /  1 1011.1R
SHEBOYGAN LAKESH 0800   70     170/ 17/ 19 1010.7F
PORT WASHINGTON  0800   65     210/  6/ 12 1012.5F
MILWAUKEE LAKESH 0810   68     190/  7/  8   N/A
S MID LAKE BUOY  0750   72 72  140/ 14/ 16 1012.4F   1/ 3
KENOSHA   LAKESH 0800   69     190/  8/ 10 1012.2F
$$

TC  - TEMPERATURE IN CELSIUS
VSB - VISIBILITY IN STATUTE MILES
WCI - WIND CHILL INDEX
HX  - HEAT INDEX




USA.gov is the U.S. government's official web portal to all federal, state and local government web resources and services.